Mackinac Island, MI

6:12 AM EST on November 21, 2017 (GMT -0500)
Mackinac Island

Weather History for KMCD - May, 2013

Change the Weather History Date:

Friday, May 10, 2013

  Actual Average Record
Temperature  
Mean Temperature 40 °F -  
Max Temperature 44 °F 53 °F 77 °F (1993)
Min Temperature 37 °F 38 °F 29 °F (1983)
Degree Days  
Heating Degree Days 24    
Moisture  
Dew Point 36 °F    
Average Humidity 85    
Maximum Humidity 93    
Minimum Humidity 69    
Precipitation  
Precipitation 0.39 in - - ()
Sea Level Pressure  
Sea Level Pressure 30.01 in    
Wind  
Wind Speed 11 mph (NE)    
Max Wind Speed 17 mph    
Max Gust Speed 23 mph    
Visibility 8 miles    
Events Rain , Snow    
Averages and records for this station are not official NWS values.
T = Trace of Precipitation, MM = Missing Value Source: NWS Daily Summary

Daily Weather History Graph

Daily Weather History Graph

Search for Another Location

Airport or City:

Trip Planner

Search our weather history database for the weather conditions in past years. The results will help you decide how hot, cold, wet, or windy it might be!

Date:

Astronomy

May. 10, 2013 Rise Set
Actual Time 6:12 AM EDT 8:57 PM EDT
Civil Twilight 5:38 AM EDT 9:32 PM EDT
Nautical Twilight 4:55 AM EDT 10:16 PM EDT
Astronomical Twilight 4:04 AM EDT 11:07 PM EDT
Moon 6:36 AM EDT (5/10) 9:47 PM EDT (5/10)
Length of Visible Light 15h 53m
Length of Day
14h 45m
New Moon, 0% of the Moon is Illuminated
May 10
New Moon
May 18
First Quarter
May 25
Full
May 31
Last Quarter
Jun 8
New

Hourly Weather History & Observations

Time (EDT) Temp. Windchill Dew Point Humidity Pressure Visibility Wind Dir Wind Speed Gust Speed Precip Events Conditions
12:35 AM 43.7 °F 36.9 °F 39.4 °F 85% 30.06 in 10.0 mi NE 13.8 mph 18.4 mph N/A Rain Light Rain
1:15 AM 42.8 °F 35.4 °F 39.6 °F 88% 30.07 in 7.0 mi NE 15.0 mph - 0.01 in Rain Light Rain
1:55 AM 41.9 °F 35.0 °F 39.4 °F 91% 30.06 in 5.0 mi NE 12.7 mph - 0.03 in Rain Light Rain
2:14 AM 41.5 °F 35.0 °F 39.2 °F 91% 30.06 in 4.0 mi NE 11.5 mph - 0.02 in Rain Light Rain
2:35 AM 41.2 °F 34.1 °F 39.2 °F 93% 30.06 in 5.0 mi NE 12.7 mph - 0.05 in   Overcast
2:55 AM 41.0 °F 34.3 °F 39.2 °F 93% 30.05 in 5.0 mi NE 11.5 mph 16.1 mph 0.06 in Rain Light Rain
3:14 AM 41.0 °F 35.2 °F 39.2 °F 93% 30.05 in 5.0 mi NE 9.2 mph - 0.02 in   Overcast
3:35 AM 40.5 °F 34.1 °F 38.7 °F 93% 30.05 in 5.0 mi NE 10.4 mph - 0.03 in   Overcast
3:55 AM 40.3 °F 33.0 °F 38.5 °F 93% 30.05 in 5.0 mi NE 12.7 mph - 0.05 in   Overcast
4:14 AM 39.7 °F 31.5 °F 37.9 °F 93% 30.05 in 5.0 mi NE 15.0 mph - 0.01 in Rain Light Rain
4:35 AM 39.4 °F 31.8 °F 37.6 °F 93% 30.05 in 5.0 mi NE 12.7 mph - 0.03 in Rain Light Rain
4:55 AM 39.2 °F 31.6 °F 37.4 °F 93% 30.04 in 5.0 mi NE 12.7 mph - 0.05 in   Unknown
5:14 AM 38.7 °F 29.8 °F 36.9 °F 93% 30.04 in 4.0 mi NE 16.1 mph - 0.02 in   Unknown
5:35 AM 38.5 °F 30.3 °F 36.7 °F 93% 30.04 in 5.0 mi NE 13.8 mph - 0.05 in   Unknown
5:55 AM 38.3 °F 29.7 °F 36.5 °F 93% 30.03 in 5.0 mi ENE 15.0 mph - 0.07 in   Unknown
6:14 AM 38.3 °F 30.1 °F 36.5 °F 93% 30.03 in 5.0 mi NE 13.8 mph 18.4 mph 0.02 in   Unknown
6:35 AM 38.3 °F 30.1 °F 36.5 °F 93% 30.03 in 3.0 mi ENE 13.8 mph 18.4 mph 0.05 in   Unknown
6:55 AM 37.9 °F 28.5 °F 36.1 °F 93% 30.03 in 4.0 mi ENE 17.3 mph 20.7 mph 0.07 in Snow Light Snow
7:14 AM 37.4 °F 27.8 °F 35.6 °F 93% 30.03 in 4.0 mi ENE 17.3 mph 21.9 mph 0.02 in Snow Light Snow
7:35 AM 37.4 °F 28.5 °F 35.6 °F 93% 30.02 in 4.0 mi ENE 15.0 mph 23.0 mph 0.04 in Snow Light Snow
8:14 AM 37.4 °F 28.2 °F 35.6 °F 93% 30.02 in 4.0 mi NE 16.1 mph - 0.01 in   Overcast
8:35 AM 37.4 °F 28.9 °F 35.6 °F 93% 30.02 in 10.0 mi ENE 13.8 mph 18.4 mph 0.02 in   Overcast
9:14 AM 37.8 °F 29.8 °F 36.0 °F 93% 30.02 in 7.0 mi NE 12.7 mph - N/A   Overcast
9:35 AM 37.8 °F 29.8 °F 36.0 °F 93% 30.03 in 10.0 mi NE 12.7 mph - N/A   Overcast
9:55 AM 37.9 °F 30.9 °F 36.1 °F 93% 30.03 in 10.0 mi NNE 10.4 mph - N/A   Overcast
10:14 AM 37.8 °F 31.3 °F 36.0 °F 93% 30.03 in 10.0 mi NNE 9.2 mph - N/A   Overcast
10:35 AM 37.8 °F 31.3 °F 36.0 °F 93% 30.02 in 10.0 mi NE 9.2 mph - N/A   Overcast
10:55 AM 37.9 °F 30.9 °F 36.1 °F 93% 30.02 in 10.0 mi NNE 10.4 mph - N/A   Overcast
11:14 AM 37.4 °F 29.8 °F 35.6 °F 93% 30.02 in 10.0 mi NNE 11.5 mph - N/A   Overcast
11:35 AM 37.4 °F 30.3 °F 35.2 °F 92% 30.02 in 10.0 mi NE 10.4 mph - N/A   Overcast
11:55 AM 37.0 °F 29.3 °F 34.9 °F 92% 30.02 in 10.0 mi NE 11.5 mph - N/A   Overcast
12:15 PM 37.4 °F 29.8 °F 35.1 °F 91% 30.02 in 10.0 mi NE 11.5 mph - N/A   Overcast
12:35 PM 37.9 °F 31.5 °F 35.4 °F 91% 30.02 in 10.0 mi NE 9.2 mph 17.3 mph N/A   Overcast
12:54 PM 38.3 °F 32.5 °F 35.8 °F 91% 30.02 in 10.0 mi NNE 8.1 mph - N/A   Overcast
1:15 PM 39.7 °F 33.2 °F 36.7 °F 89% 30.02 in 10.0 mi NE 10.4 mph - N/A   Overcast
1:35 PM 39.9 °F 32.5 °F 36.3 °F 87% 30.01 in 10.0 mi NE 12.7 mph 18.4 mph N/A   Overcast
1:54 PM 40.1 °F 33.6 °F 36.5 °F 87% 30.02 in 10.0 mi NE 10.4 mph - N/A   Overcast
2:15 PM 40.3 °F 34.4 °F 36.3 °F 86% 30.02 in 10.0 mi NE 9.2 mph - N/A   Overcast
2:35 PM 40.8 °F 35.6 °F 36.7 °F 85% 30.02 in 10.0 mi NE 8.1 mph - N/A   Overcast
2:54 PM 41.4 °F 35.7 °F 36.5 °F 83% 30.01 in 10.0 mi NNE 9.2 mph - N/A   Overcast
3:15 PM 42.1 °F 36.6 °F 36.9 °F 82% 30.00 in 10.0 mi NE 9.2 mph - N/A   Overcast
3:35 PM 42.3 °F 36.8 °F 36.7 °F 81% 30.00 in 10.0 mi NE 9.2 mph - N/A   Overcast
3:54 PM 43.0 °F 38.2 °F 36.9 °F 79% 30.00 in 10.0 mi NE 8.1 mph - N/A   Overcast
4:15 PM 43.0 °F 37.7 °F 36.1 °F 77% 29.99 in 10.0 mi ENE 9.2 mph - N/A   Overcast
4:34 PM 42.8 °F 38.0 °F 35.8 °F 76% 29.99 in 10.0 mi ENE 8.1 mph - N/A   Overcast
4:55 PM 42.8 °F 40.1 °F 36.1 °F 77% 29.99 in 10.0 mi ENE 4.6 mph - N/A   Overcast
5:15 PM 42.8 °F 39.3 °F 36.1 °F 77% 29.98 in 10.0 mi ENE 5.8 mph - N/A   Overcast
5:34 PM 43.0 °F 40.3 °F 36.1 °F 77% 29.98 in 10.0 mi NE 4.6 mph - N/A   Overcast
5:55 PM 43.5 °F 39.4 °F 36.3 °F 76% 29.98 in 10.0 mi NE 6.9 mph - N/A   Overcast
6:15 PM 43.3 °F 41.7 °F 36.5 °F 77% 29.98 in 10.0 mi NNE 3.5 mph - N/A   Overcast
6:34 PM 43.7 °F 41.1 °F 36.5 °F 76% 29.98 in 10.0 mi NE 4.6 mph - N/A   Overcast
6:55 PM 43.9 °F 41.3 °F 37.0 °F 77% 29.97 in 10.0 mi NNE 4.6 mph - N/A   Overcast
7:15 PM 44.4 °F 42.9 °F 36.9 °F 75% 29.96 in 10.0 mi NNE 3.5 mph - N/A   Overcast
7:34 PM 44.6 °F 43.1 °F 37.0 °F 75% 29.96 in 10.0 mi NNE 3.5 mph - N/A   Overcast
7:55 PM 44.6 °F 41.4 °F 37.4 °F 76% 29.95 in 10.0 mi NNE 5.8 mph - N/A   Overcast
8:15 PM 43.9 °F 39.3 °F 35.6 °F 73% 29.95 in 10.0 mi NE 8.1 mph - N/A   Overcast
8:34 PM 43.7 °F 39.7 °F 34.2 °F 69% 29.95 in 10.0 mi NE 6.9 mph - N/A   Overcast
8:55 PM 43.7 °F 41.1 °F 34.0 °F 69% 29.95 in 10.0 mi ENE 4.6 mph - N/A   Overcast
9:15 PM 43.3 °F 41.7 °F 34.7 °F 72% 29.94 in 10.0 mi East 3.5 mph - N/A   Overcast
9:34 PM 43.3 °F 41.7 °F 34.0 °F 70% 29.94 in 10.0 mi East 3.5 mph - N/A   Overcast
9:55 PM 43.7 °F - 34.0 °F 69% 29.95 in 10.0 mi Calm Calm - N/A   Overcast
10:15 PM 43.7 °F 42.1 °F 34.5 °F 70% 29.95 in 10.0 mi SSE 3.5 mph - N/A   Overcast
10:34 PM 43.3 °F 40.7 °F 35.2 °F 73% 29.95 in 10.0 mi SSE 4.6 mph - N/A   Overcast
10:55 PM 43.7 °F - 35.2 °F 72% 29.95 in 10.0 mi Calm Calm - N/A   Overcast
11:15 PM 43.2 °F - 36.7 °F 78% 29.94 in 10.0 mi Calm Calm - N/A   Overcast
11:34 PM 42.8 °F - 36.7 °F 79% 29.94 in 10.0 mi Calm Calm - N/A   Overcast
11:55 PM 42.8 °F - 36.7 °F 79% 29.93 in 10.0 mi Calm Calm - N/A   Overcast